FW9403 Weather Reports


time (UTC)temp
F
wind
direction
speed
knots
gust
knots
rain 1hr
in
rain 24hr
in
rain mn
in
humidity
%
barometer
mb
20260504000208 71 18 0.0 0.0 0.00 0.00 0.00 47 1018.5
20260503235707 72 358 0.0 0.9 0.00 0.00 0.00 46 1018.5
20260503235203 72 16 0.9 0.9 0.00 0.00 0.00 45 1018.6
20260503234701 73 359 0.9 0.9 0.00 0.00 0.00 43 1018.5
20260503234159 73 352 0.0 0.9 0.00 0.00 0.00 44 1018.5
20260503233655 73 0 0.0 1.7 0.00 0.00 0.00 42 1018.7
20260503233151 74 21 0.9 1.7 0.00 0.00 0.00 42 1018.5
20260503232648 74 353 0.0 1.7 0.00 0.00 0.00 43 1018.6
20260503232146 74 350 0.0 2.6 0.00 0.00 0.00 41 1018.7
20260503231644 74 9 0.9 4.3 0.00 0.00 0.00 42 1018.7
20260503231140 75 357 2.6 6.1 0.00 0.00 0.00 40 1018.6
20260503230636 75 309 2.6 2.6 0.00 0.00 0.00 40 1018.5
20260503230134 76 342 0.9 1.7 0.00 0.00 0.00 41 1018.6
20260503225631 76 340 7.0 7.8 0.00 0.00 0.00 38 1018.8
20260503225131 77 312 0.9 4.3 0.00 0.00 0.00 38 1018.7
20260503224628 77 351 0.0 0.9 0.00 0.00 0.00 39 1018.6
20260503224126 77 343 0.9 1.7 0.00 0.00 0.00 38 1018.6
20260503223624 77 343 0.9 1.7 0.00 0.00 0.00 36 1018.5
20260503223120 77 338 1.7 5.2 0.00 0.00 0.00 36 1018.6
20260503222618 78 330 2.6 7.0 0.00 0.00 0.00 36 1018.5
20260503222115 77 359 0.9 1.7 0.00 0.00 0.00 36 1018.8
20260503221613 77 350 4.3 5.2 0.00 0.00 0.00 38 1018.7
20260503221110 78 355 1.7 4.3 0.00 0.00 0.00 35 1018.7
20260503220607 78 350 1.7 4.3 0.00 0.00 0.00 36 1018.7
20260503220104 78 343 4.3 7.0 0.00 0.00 0.00 36 1018.8
20260503215601 78 348 0.9 4.3 0.00 0.00 0.00 37 1018.5
20260503215057 78 343 3.5 6.1 0.00 0.00 0.00 34 1018.6
20260503214556 78 327 3.5 5.2 0.00 0.00 0.00 34 1018.9
20260503214052 78 337 2.6 4.3 0.00 0.00 0.00 35 1018.9
20260503213551 78 349 1.7 5.2 0.00 0.00 0.00 38 1018.8
20260503213047 78 336 0.9 6.1 0.00 0.00 0.00 34 1018.9
20260503212544 78 4 0.9 2.6 0.00 0.00 0.00 35 1018.7
20260503212042 78 15 0.9 2.6 0.00 0.00 0.00 35 1019.0
20260503211539 78 326 1.7 5.2 0.00 0.00 0.00 38 1019.2
20260503211034 78 327 3.5 9.6 0.00 0.00 0.00 35 1019.1
20260503210531 77 345 0.9 4.3 0.00 0.00 0.00 36 1019.2
20260503210027 78 28 0.9 5.2 0.00 0.00 0.00 35 1019.4
20260503205524 78 346 0.9 4.3 0.00 0.00 0.00 37 1019.4
20260503205020 77 346 0.9 5.2 0.00 0.00 0.00 36 1019.4
20260503204517 77 0 1.7 6.1 0.00 0.00 0.00 36 1019.6
20260503204014 78 325 6.1 7.0 0.00 0.00 0.00 37 1019.7
20260503203511 78 308 3.5 5.2 0.00 0.00 0.00 36 1019.5
20260503203008 78 322 2.6 5.2 0.00 0.00 0.00 35 1019.7
20260503202506 78 327 1.7 7.8 0.00 0.00 0.00 35 1019.7
20260503202004 78 352 1.7 7.8 0.00 0.00 0.00 39 1019.8
20260503201502 78 336 0.9 4.3 0.00 0.00 0.00 36 1019.9
20260503200959 78 345 0.9 1.7 0.00 0.00 0.00 39 1019.7
20260503200455 77 331 0.0 2.6 0.00 0.00 0.00 40 1019.9
20260503195952 77 347 3.5 4.3 0.00 0.00 0.00 39 1020.1
20260503195449 77 285 2.6 5.2 0.00 0.00 0.00 37 1020.1
20260503194945 78 324 3.5 9.6 0.00 0.00 0.00 36 1020.1
20260503194443 78 323 0.9 1.7 0.00 0.00 0.00 36 1020.3
20260503193938 77 345 1.7 5.2 0.00 0.00 0.00 37 1020.4
20260503193434 75 332 3.5 5.2 0.00 0.00 0.00 40 1020.5
20260503192929 77 42 3.5 7.0 0.00 0.00 0.00 34 1020.3
20260503192426 77 0 0.9 5.2 0.00 0.00 0.00 38 1020.7
20260503191921 77 326 2.6 5.2 0.00 0.00 0.00 37 1020.7
20260503191420 77 359 2.6 4.3 0.00 0.00 0.00 35 1020.7
20260503190915 76 349 2.6 5.2 0.00 0.00 0.00 41 1021.0
20260503190413 76 0 0.9 1.7 0.00 0.00 0.00 34 1020.8
20260503185909 76 357 2.6 7.0 0.00 0.00 0.00 39 1021.0
20260503185406 76 30 2.6 5.2 0.00 0.00 0.00 35 1021.0
20260503184905 76 351 0.9 5.2 0.00 0.00 0.00 36 1021.1
20260503184402 75 313 1.7 2.6 0.00 0.00 0.00 39 1021.2
20260503183858 75 344 1.7 6.1 0.00 0.00 0.00 37 1021.4
20260503183355 75 357 0.9 2.6 0.00 0.00 0.00 36 1021.6
20260503182853 76 15 2.6 7.0 0.00 0.00 0.00 36 1021.5
20260503182351 77 295 2.6 4.3 0.00 0.00 0.00 39 1021.6
20260503181848 76 347 0.9 5.2 0.00 0.00 0.00 38 1021.6
20260503181345 75 5 3.5 8.7 0.00 0.00 0.00 36 1021.3
20260503180842 76 345 2.6 7.8 0.00 0.00 0.00 37 1021.5
20260503180340 76 20 2.6 7.0 0.00 0.00 0.00 39 1021.8
20260503175836 76 2 5.2 7.8 0.00 0.00 0.00 41 1021.6
20260503175334 76 345 2.6 4.3 0.00 0.00 0.00 39 1021.7
20260503174829 76 319 1.7 7.0 0.00 0.00 0.00 40 1021.6
20260503174328 75 340 1.7 4.3 0.00 0.00 0.00 41 1021.7
20260503173823 75 353 0.9 4.3 0.00 0.00 0.00 37 1021.9
20260503173319 75 346 0.9 4.3 0.00 0.00 0.00 39 1021.8
20260503172816 74 344 0.0 2.6 0.00 0.00 0.00 37 1021.9
20260503172314 74 350 3.5 7.0 0.00 0.00 0.00 37 1022.0
20260503171810 74 335 3.5 7.8 0.00 0.00 0.00 40 1021.8
20260503171307 74 85 1.7 1.7 0.00 0.00 0.00 39 1022.0
20260503170804 74 3 1.7 5.2 0.00 0.00 0.00 41 1022.1
20260503170300 74 16 3.5 7.0 0.00 0.00 0.00 36 1022.2
20260503150653 72 18 1.7 4.3 0.00 0.00 0.00 42 1023.0
20260503150149 72 7 1.7 4.3 0.00 0.00 0.00 45 1022.8
20260503140113 68 359 0.9 2.6 0.00 0.00 0.00 56 1022.6
20260503131042 62 6 0.0 2.6 0.00 0.00 0.00 72 1022.1
20260503130539 62 356 0.9 1.7 0.00 0.00 0.00 71 1021.9
20260503110430 45 347 0.9 0.9 0.00 0.00 0.00 99 1021.0
20260503090321 47 351 0.0 0.9 0.00 0.00 0.00 98 1020.5
20260503081248 49 351 0.0 0.0 0.00 0.00 0.00 91 1020.4
20260503080744 50 347 0.0 0.0 0.00 0.00 0.00 90 1020.1
20260503080242 51 345 0.0 0.9 0.00 0.00 0.00 87 1019.9
20260503072718 51 341 0.9 1.7 0.00 0.00 0.00 85 1019.7
20260503072215 51 343 0.9 1.7 0.00 0.00 0.00 85 1019.5
20260503071712 51 328 0.9 1.7 0.00 0.00 0.00 88 1019.8
20260503071209 50 347 0.9 1.7 0.00 0.00 0.00 94 1019.7
20260503070705 48 331 0.9 1.7 0.00 0.00 0.00 99 1019.8
20260503070204 48 338 0.9 1.7 0.00 0.00 0.00 98 1019.9
20260503060127 51 347 0.0 0.9 0.00 0.00 0.00 92 1020.0
20260503055119 53 352 0.0 0.0 0.00 0.00 0.00 85 1019.6
20260503054615 53 348 0.0 0.0 0.00 0.00 0.00 82 1019.6
20260503054112 54 348 0.0 0.9 0.00 0.00 0.00 81 1019.6
20260503053610 54 350 0.0 0.9 0.00 0.00 0.00 80 1019.6
20260503053108 54 348 0.9 0.9 0.00 0.00 0.00 80 1019.7
20260503052604 54 349 0.0 1.7 0.00 0.00 0.00 81 1019.7
20260503052101 53 334 0.9 0.9 0.00 0.00 0.00 83 1019.6
20260503051556 53 344 0.9 0.9 0.00 0.00 0.00 86 1019.7
20260503051054 53 352 0.0 0.0 0.00 0.00 0.00 86 1019.6
20260503050549 53 352 0.0 0.0 0.00 0.00 0.00 86 1019.5
20260503050047 53 353 0.0 0.0 0.00 0.00 0.00 87 1019.3
20260503045544 53 347 0.0 0.9 0.00 0.62 0.62 86 1019.5
20260503045041 53 345 0.0 0.9 0.00 0.62 0.62 86 1019.6
20260503044538 53 351 0.0 0.0 0.00 0.62 0.62 88 1019.2
20260503044036 52 346 0.0 0.9 0.00 0.62 0.62 93 1019.3
20260503043532 51 349 0.0 1.7 0.00 0.62 0.62 96 1019.3
20260503043028 51 342 0.9 0.9 0.00 0.62 0.62 97 1019.4
20260503042526 52 342 0.0 0.9 0.00 0.62 0.62 96 1019.3
20260503042021 52 342 0.0 0.9 0.00 0.62 0.62 95 1019.4
20260503041518 52 343 0.0 0.9 0.00 0.62 0.62 95 1019.3
20260503041016 51 343 0.0 0.0 0.00 0.62 0.62 95 1019.2
20260503040514 52 343 0.0 0.0 0.00 0.62 0.62 95 1019.4
20260503040011 52 343 0.0 0.0 0.00 0.62 0.62 95 1019.1
20260503035507 52 343 0.0 0.0 0.00 0.62 0.62 95 1019.3
20260503035005 52 343 0.0 0.0 0.00 0.62 0.62 94 1019.3
20260503034502 52 343 0.0 0.0 0.00 0.62 0.62 93 1019.0
20260503033959 52 343 0.0 0.0 0.00 0.62 0.62 91 1019.1
20260503033456 52 343 0.0 0.0 0.00 0.62 0.62 91 1019.3
20260503032954 53 343 0.0 0.0 0.00 0.62 0.62 90 1019.0
20260503032452 53 343 0.0 0.0 0.00 0.62 0.62 90 1019.0
20260503031950 53 331 0.9 0.9 0.00 0.62 0.62 91 1018.9
20260503031447 54 336 0.0 0.9 0.00 0.62 0.62 89 1018.9
20260503030944 54 343 0.0 0.9 0.00 0.62 0.62 87 1019.0
20260503030440 54 345 0.0 0.0 0.00 0.62 0.62 86 1018.8
20260503025937 53 346 0.0 0.9 0.00 0.62 0.62 89 1018.9
20260503025434 53 346 0.0 0.0 0.00 0.62 0.62 91 1018.8
20260503024932 53 346 0.0 0.9 0.00 0.62 0.62 92 1018.9
20260503024428 54 342 0.9 0.9 0.00 0.62 0.62 90 1018.8
20260503023925 55 350 0.0 0.9 0.00 0.62 0.62 89 1018.6
20260503023422 55 350 0.0 0.9 0.00 0.62 0.62 89 1018.5
20260503022919 55 350 0.0 0.9 0.00 0.62 0.62 85 1018.6
20260503022414 55 350 0.0 0.0 0.00 0.62 0.62 84 1018.3
20260503021910 56 350 0.0 0.0 0.00 0.62 0.62 83 1018.4
20260503021406 56 350 0.0 0.0 0.00 0.62 0.62 84 1018.3
20260503020904 56 350 0.0 0.0 0.00 0.62 0.62 81 1018.3
20260503020402 56 351 0.0 0.0 0.00 0.62 0.62 81 1018.2
20260503015857 57 351 0.0 0.0 0.00 0.62 0.62 80 1018.1
20260503015355 57 350 0.0 0.0 0.00 0.62 0.62 76 1018.2
20260503014850 57 350 0.0 0.0 0.00 0.62 0.62 75 1018.0
20260503014348 58 350 0.0 0.0 0.00 0.62 0.62 74 1018.0
20260503013846 58 350 0.0 0.0 0.00 0.62 0.62 72 1017.9
20260503013342 59 350 0.0 0.0 0.00 0.62 0.62 71 1017.9
20260503012839 59 350 0.0 0.9 0.00 0.62 0.62 71 1017.7
20260503012337 60 350 0.0 0.0 0.00 0.62 0.62 69 1017.7
20260503011834 61 345 0.0 0.0 0.00 0.62 0.62 65 1017.6
20260503011331 61 348 0.0 0.9 0.00 0.62 0.62 65 1017.6
20260503010827 61 349 0.0 0.9 0.00 0.62 0.62 66 1017.2
20260503010325 61 349 0.0 0.9 0.00 0.62 0.62 65 1017.3
20260503005821 62 351 0.0 0.0 0.00 0.62 0.62 63 1017.2
20260503005319 63 351 0.0 0.9 0.00 0.62 0.62 61 1017.1
20260503004815 63 354 0.0 1.7 0.00 0.62 0.62 59 1017.1
20260503004313 64 334 1.7 1.7 0.00 0.62 0.62 58 1016.8
20260503003810 64 326 1.7 1.7 0.00 0.62 0.62 57 1016.9
20260503003307 64 353 0.9 1.7 0.00 0.62 0.62 57 1016.7
20260503002804 65 3 0.9 2.6 0.00 0.62 0.62 56 1016.7
20260503002300 65 350 0.9 0.9 0.00 0.62 0.62 56 1016.4
20260503001756 66 357 0.9 2.6 0.00 0.62 0.62 54 1016.2
20260503001253 66 348 0.9 2.6 0.00 0.62 0.62 53 1016.2
20260503000751 67 351 0.9 5.2 0.00 0.62 0.62 50 1016.3
20260503000248 67 1 0.9 4.3 0.00 0.62 0.62 49 1016.3